CZ-6A DEB, 60652

Orbit data source: Space-Track

CZ-6A DEB, 60652 is space debris in LEO originally from a launch on Tue, 06 Aug 2024 UTC launched from the Taiyaun Space Center, China (TSC). Debris objects in space refer to the collection of defunct objects orbiting the Earth. Examples of debris include non-operational satellites, rocket bodies, and fragments generated from explosions, collisions, or faulty payload assembly.

Loading next visibility...
Identifier
60652, 2024-140BD
Orbit
LEO
Country
Flag of CNCN / PRC
Related business
Manufacturer
SAST
Mission
Spacecraft
Bus & Motor
Unknown
Mass
Unknown
Launch date (UTC)
2024-08-06 (2 years ago)
Launch vehicle
Unknown
Launch site
Taiyaun Space Center, China (TSC)
Object type
Payload
Rocket body
Debris
Shape & HBR
Unknown shape, 1.2 m
Radar Cross Section
Large (>1 m²)

Expand to show TLE details & history
Last TLE update: 16 hours ago

TLE from 16 hours ago
0 CZ-6A DEB
1 60652U 24140BD  26171.31043306  .00002457  00000-0  65453-3 0  9991
2 60652  88.9276 264.9783 0050724 267.5343  92.0054 14.47473499 98298
Epoch: 2026-06-20T07:27Z
TLE epoch observation values (Epoch: 2026-06-20T07:27:01.416Z)
Latitude
-0.00008°
Longitude
-115.30449°
Altitude
738.45 km
Speed
7.485 km/s
True Right ascension
17h 39m 54s
True Declination
0° 00' 00"
Sunlit
Object was in full shadow at epoch
Visualization orbit readout
Latitude
Unknown
Longitude
Unknown
Altitude
Unknown
Speed
Unknown
Apparent Right ascension
Unknown
Apparent Declination
Unknown
Sunlit
N/A
Visualization observer readout
Local Sidereal Time
10:17:58
Azimuth
Unknown
Elevation
Unknown
Doppler factor
Unknown
Orbital elements
Apogee altitude
766.884 km
Perigee altitude
694.765 km
Semi-major axis
7,108.962 km
Eccentricity
0.00507
Inclination
88.9276°
RAAN
264.9783°
Arg. of periapsis
267.5343°
True anomaly
92.58616°
Mean anomaly
92.0054°
Eccentric anomaly
92.29579°
Mean motion
3.62104 °/min
Orbital period
99.42 mins
BSTAR
0.00065453
Loading maneuver chart data...
Computing Atmospheric mass density...
Loading historical data...
Loading historical data...
Loading historical data...
Loading historical data...
Loading historical data...
Loading historical data...
Loading historical data...

Documentation

Showing up to 5 results
|